Volver al catálogo

WGS 5

USA 243

ActivoMilitarGEO
NORAD 39168·PAYLOAD·🇺🇸 United States

Lanzado May 25, 2013 desde Cape Canaveral Space Force Station

Loading…

TLE

ActualizadoSource: Space-Track

Época: Sep 14, 2026, 11:50 UTC

1 39168U 13024A   26257.49349523  .00000000  00000-0  00000-0 0  9998
2 39168   0.0202 168.3174 0000522  15.4187 294.8862  1.00269224 48072

Sigue WGS 5 en tiempo real con AllMySat

Download on the App Store